Home   Weather   New York   Past weeks
Flag for USA

Past Weather in New York, New York, USA — January 2020

Now
60 °F

Clear.


Feels Like: 60 °F
Forecast: 63 / 48 °F
Wind: 5 mph from North

Location: New York City - Central Park

Current Time: Apr 6, 2020 at 10:04:55 pm

Latest Report: Apr 6, 2020 at 8:51 pm


Visibility: 10 mi

Pressure: 29.96 "Hg

Humidity: 20%

Dew Point: 19 °F

Location of New YorkLocation

January 2020 Weather in New York — Graph

°F

High & Low Weather Summary for January 2020

 TemperatureHumidityPressure
High68 °F (Jan 11, 1:51 pm)97% (Jan 4, 3:59 am)30.74 "Hg (Jan 4, 3:59 am)
Low20 °F (Jan 18, 12:51 am)22% (Jan 20, 3:51 pm)29.52 "Hg (Jan 4, 1:51 pm)
Average40 °F62%30.09 "Hg
* Reported Jan 1 12:51 am — Jan 31 11:51 pm, New York. Weather by CustomWeather, © 2020

Note: Actual official high and low records may vary slightly from our data, if they occured in-between our weather recording intervals... More about our weather records

New York Weather History for January 1, 2020

Scroll right to see more
 ConditionsComfort  
Time TempWeatherWind HumidityBarometerVisibility
12:51 am
Wed, Jan 1
40 °FMostly cloudy.8 mph58%29.64 "Hg10 mi
1:51 am39 °FMostly cloudy.8 mph61%29.65 "Hg10 mi
2:51 am39 °FOvercast.14 mph60%29.66 "Hg10 mi
3:51 am39 °FOvercast.12 mph55%29.67 "Hg10 mi
4:51 am38 °FOvercast.6 mph55%29.67 "Hg10 mi
5:51 am37 °FOvercast.3 mph54%29.69 "Hg10 mi
6:51 am37 °FOvercast.8 mph62%29.70 "Hg10 mi
7:51 am37 °FOvercast.8 mph60%29.71 "Hg10 mi
8:51 am37 °FOvercast.12 mph54%29.73 "Hg10 mi
9:51 am38 °FOvercast.6 mph53%29.75 "Hg10 mi
10:51 am38 °FOvercast.12 mph46%29.75 "Hg10 mi
11:51 am39 °FPartly sunny.12 mph43%29.74 "Hg10 mi
12:51 pm38 °FOvercast.8 mph46%29.73 "Hg10 mi
1:51 pm38 °FOvercast.9 mph45%29.73 "Hg10 mi
2:51 pm38 °FOvercast.12 mph46%29.75 "Hg10 mi
3:51 pm38 °FOvercast.10 mph46%29.78 "Hg10 mi
4:51 pm38 °FOvercast.7 mph48%29.81 "Hg10 mi
5:51 pm38 °FOvercast.7 mph48%29.83 "Hg10 mi
6:51 pm37 °FOvercast.9 mph50%29.85 "Hg10 mi
7:51 pm36 °FPassing clouds.9 mph50%29.86 "Hg10 mi
8:51 pm35 °FClear.9 mph52%29.88 "Hg10 mi
9:51 pm35 °FClear.6 mph52%29.89 "Hg10 mi
10:51 pm35 °FClear.8 mph52%29.89 "Hg10 mi
11:51 pm34 °FClear.5 mph52%29.90 "Hg10 mi
Weather by CustomWeather, © 2020

See weather overview

Advertising